sat.trackr.live / text

‹ back to catalog

YAOGAN-22

NORAD 40275 · 2014-063A

PAYLOAD ACTIVE UNKNOWN

§ Identity

Operator
Country
PRC
Launch date
2014-10-20
Launch site
TAISC
Launch vehicle
Mass (kg)
RCS (m²)
3.16

Purposes: earth_obs

External: N2YO · Heavens-Above · Gunter

§ Orbital elements

Epoch: 2026-09-20T04:09:33.956352Z

Period
109.46 min
Inclination
100.7871°
Eccentricity
0.0006109
Mean motion
13.15533442 rev/d
Perigee alt
1,197.2 km
Apogee alt
1,206.5 km
Semi-major
7,580.0 km
B*
7.7057e-5
RAAN
56.0883°
Arg perigee
341.5539°
Mean anomaly
18.5350°
Rev number
57,230

§ Raw data

YAOGAN-221 40275U 14063A   26263.17330968 -.00000018  00000+0  77057-4 0  99972 40275 100.7871  56.0883 0006109 341.5539  18.5350 13.15533442572300

JSON: /api/v1/satellites/40275 · /tle

For live sub-satellite position, see the globe view (requires WebGL).

§ Visibility from observer

Set your observer location to see the next 7 days of passes ≥ 10°. The values pass through the URL so the page stays shareable.

No JS? Fill the form by hand. The geolocation button needs JavaScript.